Theta_e
329 330 329 329 326 326 329 328 327 330 330 330 329 329 331 335 339 342 337 337 337 335 330 333 335 334 333 333 332 331 327 322 317 322 330 328 327 328 326 327 327 326 327 327 324 317 313 314 317
328 330 328 329 327 329 330 325 332 331 331 331 331 332 330 335 336 338 338 338 337 334 330 334 335 334 333 332 332 331 325 321 313 320 324 328 329 327 324 328 326 326 327 325 321 314 312 313 316
328 327 326 326 329 332 330 325 330 332 332 333 333 331 335 336 336 335 338 338 338 335 328 331 333 333 331 331 331 330 326 324 317 317 318 323 328 327 323 326 325 323 326 322 313 312 311 312 316
326 328 327 327 330 329 329 324 330 331 331 330 333 333 335 337 336 335 337 338 337 335 333 329 331 331 331 331 331 330 325 327 319 315 313 318 326 327 323 325 325 322 318 318 312 312 312 312 313
326 327 325 329 330 329 328 327 328 327 329 331 332 332 336 335 334 336 336 337 337 337 335 327 328 329 331 331 330 329 325 328 319 314 314 311 319 327 323 322 325 322 316 312 312 312 312 312 312
326 326 325 329 328 328 325 327 328 328 328 332 330 330 337 336 332 332 336 337 337 336 335 329 326 326 330 331 330 329 326 327 321 316 312 311 312 319 319 320 326 323 313 312 312 312 312 312 312
325 323 326 326 326 326 325 326 325 325 326 329 330 329 337 336 335 332 336 337 336 336 335 332 325 325 329 330 329 328 328 328 325 324 313 311 312 313 317 319 320 318 320 314 313 312 312 312 312
326 321 326 324 324 325 322 324 326 326 329 330 330 328 335 334 335 332 337 337 336 335 335 333 330 325 326 329 329 328 324 329 327 327 320 312 312 315 315 315 315 315 313 313 313 313 313 313 313
326 321 322 323 324 323 322 320 323 325 326 328 331 330 331 333 333 331 333 335 336 335 335 334 332 326 324 323 324 325 321 329 329 327 324 317 313 312 314 313 313 313 313 313 313 313 313 313 313
325 321 323 322 322 322 322 322 323 322 323 325 331 331 331 332 331 329 330 334 335 335 335 334 334 332 326 322 322 323 319 328 328 327 326 320 315 312 312 313 313 312 313 313 313 313 313 313 314
325 324 323 324 324 323 323 323 322 321 321 324 325 331 332 331 329 326 327 330 333 335 334 334 333 333 331 325 325 323 320 318 329 328 329 324 316 314 312 313 313 313 313 313 313 313 313 314 315
325 326 325 325 324 324 324 324 324 324 323 322 321 325 331 332 331 327 326 326 329 334 333 332 332 332 330 330 327 322 318 316 325 330 327 323 318 314 314 313 313 313 313 313 313 313 314 315 317
324 324 325 325 325 325 325 325 324 324 324 323 324 323 323 329 333 331 327 327 328 330 332 332 331 331 329 328 325 322 317 322 327 329 328 324 320 319 315 313 312 313 313 313 313 314 315 315 315
325 324 324 324 324 324 323 323 323 323 323 324 323 323 321 322 329 332 330 328 329 327 330 332 332 329 330 329 327 323 320 326 326 327 325 322 319 318 319 315 312 313 314 314 314 314 315 315 317
324 324 322 323 323 322 323 321 320 322 322 322 322 322 321 321 324 325 326 328 327 329 326 328 329 330 328 331 330 327 323 323 325 325 324 322 322 319 317 317 316 313 313 314 315 315 316 316 317
323 323 325 322 323 323 322 323 320 322 321 320 321 322 323 322 322 322 323 323 326 329 328 326 326 325 327 326 330 331 328 325 324 323 324 324 322 321 319 317 317 316 313 314 315 315 315 316 316
323 323 322 323 322 320 320 321 321 322 321 321 320 322 323 323 322 322 322 324 324 324 326 325 326 323 324 325 326 330 331 331 329 326 325 325 324 323 321 318 316 317 315 315 315 315 316 316 316
323 322 322 322 319 319 320 319 318 321 321 320 320 321 321 321 321 324 323 324 325 324 324 324 325 327 325 324 326 328 330 330 330 330 330 329 327 325 324 323 319 317 316 314 314 315 316 315 315
319 319 318 318 319 320 319 318 317 319 319 318 318 319 320 320 321 321 322 324 324 324 324 324 324 324 331 330 326 323 325 328 329 329 329 327 327 328 327 325 324 320 317 315 315 315 316 316 316
321 321 321 318 318 319 318 318 316 317 318 318 318 318 319 319 320 320 320 320 322 324 324 324 323 323 326 332 330 328 325 324 326 328 329 329 327 325 328 327 326 326 322 317 316 316 317 316 317
319 321 320 320 318 318 318 318 317 316 318 318 318 317 318 318 318 319 320 320 319 320 321 323 324 323 323 327 332 331 331 329 328 329 328 328 329 328 327 327 328 328 327 325 321 317 316 316 315
320 318 318 319 319 320 317 321 317 314 314 314 316 317 317 318 318 318 318 318 319 319 319 322 323 323 322 322 327 328 329 330 327 325 326 326 328 329 329 328 327 328 328 328 327 326 322 317 315
318 316 316 318 319 319 318 321 319 314 314 313 315 316 317 318 318 318 318 318 318 319 319 321 321 321 322 322 322 324 328 328 328 328 329 329 327 327 327 327 328 328 328 328 328 328 328 326 322
316 318 317 317 318 321 318 318 318 316 315 313 314 315 316 317 317 316 315 315 314 314 315 316 317 318 318 321 324 325 324 324 327 329 329 328 329 329 327 327 327 328 328 327 328 328 328 328 328
318 319 321 322 321 321 316 318 318 313 312 313 315 315 316 316 316 313 311 311 312 312 312 312 311 310 314 318 319 322 325 325 327 329 330 330 330 330 327 326 327 328 327 327 327 327 328 328 328
317 319 322 322 321 318 314 318 317 313 315 316 315 314 315 314 312 312 311 311 312 311 311 311 310 312 311 310 314 318 318 319 324 326 328 330 330 330 328 328 328 327 327 327 328 328 327 327 328
317 320 317 319 311 315 313 313 312 312 311 312 312 313 313 313 311 312 312 311 311 310 311 310 310 310 311 311 309 310 316 318 319 322 325 326 327 328 329 329 329 328 328 328 328 328 327 327 326
316 315 318 317 318 319 315 313 313 312 311 310 310 312 312 312 311 310 309 309 310 309 309 310 311 311 310 311 311 310 310 314 318 319 321 323 324 326 327 328 330 329 329 329 329 329 328 327 326
316 317 316 316 317 320 319 315 310 312 310 310 310 310 310 311 310 309 309 307 307 307 308 308 309 309 311 311 310 310 310 310 312 317 320 322 323 325 326 327 328 329 328 328 327 327 327 327 326
315 316 316 317 318 315 316 316 310 310 309 311 309 310 309 310 309 309 307 306 305 305 306 307 307 307 309 310 311 311 310 309 310 314 314 319 322 324 325 325 326 326 327 327 327 327 326 326 325
Wind_Speed
12 11 10 5 4 5 4 5 4 5 4 3 6 5 6 6 3 2 11 8 10 8 11 11 8 10 9 7 4 4 3 3 3 10 12 13 16 12 14 12 12 13 14 13 14 14 15 16 17
15 9 6 3 4 3 3 2 7 4 4 3 5 7 6 2 3 9 16 9 9 10 11 11 10 10 8 6 6 4 3 4 5 10 13 15 14 11 9 13 10 13 14 13 12 12 14 15 16
13 9 5 3 2 2 3 1 6 7 5 1 2 3 3 3 4 12 11 14 11 10 11 10 11 10 8 8 7 4 5 5 4 10 12 14 16 10 11 12 11 10 13 12 11 13 13 14 15
14 5 3 3 3 5 6 6 9 8 3 4 2 5 5 4 2 5 15 18 12 9 8 10 11 10 9 7 7 4 4 4 3 7 10 13 16 11 11 9 13 11 11 11 11 11 11 12 12
9 4 3 2 4 4 4 8 7 4 2 7 6 5 6 4 4 4 21 17 14 10 8 9 10 10 9 8 7 5 4 3 3 5 7 8 14 13 9 12 10 7 10 10 10 9 9 10 10
6 4 4 3 6 5 5 10 7 4 5 8 4 5 4 6 5 10 17 17 13 12 10 9 10 10 11 9 7 6 5 3 3 2 3 4 6 10 9 12 13 9 8 9 7 7 8 8 9
3 3 3 4 5 7 2 5 6 5 8 2 3 4 6 9 7 10 18 15 12 12 11 9 11 12 11 10 9 8 7 5 3 2 3 4 5 7 8 9 11 12 10 7 7 6 6 6 7
5 3 3 3 3 5 9 3 4 6 2 1 1 3 5 12 10 10 21 18 13 12 13 11 13 13 13 13 12 10 10 9 6 3 3 4 5 7 8 8 10 10 9 7 5 5 4 4 5
2 3 1 4 2 2 10 5 8 5 7 3 0 3 4 7 11 12 20 18 15 14 13 13 10 12 13 13 13 12 12 12 10 7 5 6 6 7 8 7 7 7 9 8 6 5 4 3 3
3 3 5 5 4 0 4 7 8 3 10 8 2 5 7 9 10 14 16 19 21 18 17 15 13 12 11 13 14 15 15 16 14 12 9 8 8 9 8 8 8 8 10 10 9 6 4 3 4
3 4 6 18 2 5 4 7 5 2 2 2 4 11 13 13 12 14 14 17 20 19 18 18 18 16 14 14 13 14 18 19 19 16 13 12 12 12 11 11 11 11 11 10 10 9 7 6 5
4 15 16 15 5 2 2 9 10 8 8 9 7 5 10 15 14 14 15 17 19 23 19 17 21 22 19 19 19 16 18 21 20 18 16 16 15 14 13 13 13 13 13 13 13 12 10 9 8
6 13 18 19 19 8 5 9 9 16 16 17 15 11 14 16 17 15 15 17 16 23 22 21 20 23 22 22 21 19 17 19 19 18 19 17 18 16 16 16 17 16 16 16 15 14 12 11 10
8 7 5 7 13 11 6 12 10 6 13 17 16 16 16 15 20 19 18 18 20 17 25 24 22 21 24 24 23 21 20 19 20 22 22 20 19 18 19 19 19 19 17 16 17 15 13 13 12
7 3 5 7 13 7 7 5 7 21 23 25 24 16 17 16 17 21 20 18 17 18 17 26 23 22 24 27 26 24 24 23 24 25 23 22 22 21 21 21 21 20 20 18 18 17 17 17 16
4 0 2 5 14 15 10 13 6 17 19 22 28 27 25 22 22 21 21 18 17 17 19 24 26 24 25 26 28 28 26 27 27 27 25 25 24 23 24 24 23 22 23 23 22 21 21 20 19
3 4 7 5 15 5 8 7 7 11 20 16 18 21 20 20 21 28 25 22 19 19 20 21 28 26 27 26 28 29 29 28 29 30 29 28 27 27 27 26 25 23 24 26 25 24 24 24 22
9 6 5 7 6 6 7 11 7 13 19 24 21 19 20 23 24 15 28 26 23 21 21 23 25 29 30 28 28 31 32 32 31 32 33 31 31 31 30 28 28 28 27 28 28 27 26 26 23
5 4 7 4 5 6 6 9 8 15 20 23 27 25 22 23 24 24 16 25 24 25 24 23 26 29 30 32 33 33 36 36 34 34 33 33 32 33 33 32 30 31 32 31 29 27 27 28 24
11 10 15 6 4 4 5 11 9 14 20 27 31 35 32 32 30 28 30 29 28 30 31 28 24 27 32 35 36 35 35 36 37 36 36 35 34 31 33 33 33 33 34 33 32 31 30 30 27
10 16 7 10 5 3 4 13 13 8 28 29 32 35 34 39 39 35 30 29 27 31 33 34 30 26 30 36 38 37 36 35 38 41 41 41 40 39 36 34 33 33 35 36 35 34 33 33 31
15 9 6 5 4 7 4 11 17 6 10 9 18 20 26 18 26 30 29 26 27 25 23 30 32 27 27 31 39 40 41 43 40 38 40 40 41 43 42 40 38 36 36 38 38 37 35 34 36
10 6 7 7 6 2 14 4 16 3 4 6 18 32 22 14 13 3 4 2 1 2 6 12 19 25 27 29 33 38 44 45 43 41 43 41 40 40 41 42 43 42 40 40 41 41 39 39 39
3 1 4 4 2 9 20 8 19 15 16 7 15 5 8 15 11 9 7 4 4 4 7 11 17 19 22 27 31 34 36 39 45 46 47 46 45 41 40 41 43 43 44 44 43 43 44 43 43
3 4 2 4 5 10 8 9 21 5 5 7 7 13 13 13 11 12 10 8 9 11 10 10 11 13 19 23 27 33 37 39 43 47 49 47 46 45 43 40 42 43 43 44 45 46 46 46 47
9 11 4 8 6 4 8 10 9 9 25 18 10 18 21 19 15 9 10 12 12 15 15 13 14 14 14 16 22 27 30 37 40 45 48 50 48 47 44 44 42 41 42 42 43 43 44 45 47
4 9 9 8 3 2 4 7 7 7 3 11 19 24 19 14 10 11 12 14 12 12 15 16 15 15 15 17 17 20 27 30 34 37 41 45 46 46 45 43 43 40 39 39 40 41 42 43 45
8 5 3 4 4 8 5 5 5 5 8 9 12 20 16 12 11 13 12 9 9 13 15 15 14 14 16 18 19 19 20 24 30 31 35 38 41 42 42 42 41 40 40 41 42 42 41 42 44
7 5 4 3 2 2 2 5 7 9 11 12 12 17 17 14 14 12 9 11 13 15 19 22 22 20 18 18 17 20 19 20 23 30 32 33 35 37 39 39 39 40 41 42 43 44 43 43 42
14 11 11 5 4 3 2 4 7 11 11 18 16 19 14 14 14 10 12 15 18 20 22 25 26 26 24 23 22 19 20 21 21 22 27 32 34 34 34 35 37 39 39 40 43 43 41 40 40
Wind_Direction
327 322 327 341 42 67 30 38 47 34 41 32 34 38 122 75 49 172 145 198 200 184 172 168 163 154 147 144 143 118 88 98 124 121 121 119 122 126 125 128 112 113 112 110 100 98 96 97 98
340 336 352 322 84 63 311 168 88 88 113 50 54 32 72 90 61 155 161 190 210 178 172 171 164 160 157 158 157 128 88 90 107 124 122 125 124 123 123 119 136 115 114 112 111 101 97 96 102
355 346 327 81 96 150 130 141 147 137 133 112 97 65 65 113 89 161 167 185 193 183 174 173 167 166 165 164 158 125 82 84 95 126 129 129 129 140 132 140 126 121 127 117 112 99 97 99 110
347 10 303 70 298 272 135 168 143 130 148 157 131 102 101 126 178 170 156 169 200 183 171 178 171 171 171 169 160 144 90 86 104 138 133 138 136 148 138 146 146 148 132 130 114 104 101 102 116
347 314 23 11 272 291 14 107 84 113 143 166 143 154 118 157 217 173 164 166 189 198 196 190 183 172 177 174 174 158 131 110 109 130 144 143 148 152 171 151 137 149 134 127 115 110 103 100 112
347 10 34 328 316 335 49 70 69 32 21 156 135 123 146 175 201 151 159 169 203 207 207 199 198 186 176 185 190 182 174 144 117 135 149 133 152 161 172 159 151 162 152 137 127 115 106 106 113
33 67 250 308 297 331 76 65 61 16 6 331 133 87 153 184 194 155 160 169 204 224 223 217 209 203 185 195 198 198 196 185 169 140 169 162 156 166 172 171 167 167 166 145 144 131 119 117 114
6 86 311 305 318 327 342 18 69 46 28 21 76 124 185 203 201 172 167 167 203 233 239 228 219 215 205 198 201 210 212 210 207 200 200 196 189 179 184 187 183 175 164 168 170 148 142 134 124
315 56 264 259 39 234 25 28 26 7 326 328 128 212 214 193 195 191 177 180 191 218 233 238 228 213 223 217 216 221 222 221 222 222 223 219 219 211 204 202 209 185 175 186 189 187 182 166 151
160 128 230 246 328 341 84 29 348 14 343 319 188 215 236 213 204 205 194 190 195 210 222 244 241 234 228 222 221 225 225 224 227 225 232 234 226 220 221 214 212 206 205 205 206 210 213 213 193
227 192 270 298 25 24 3 357 353 36 322 79 41 224 224 223 221 214 212 205 199 209 217 226 231 243 250 235 227 228 228 226 228 230 234 241 231 221 221 220 221 223 226 226 223 224 227 232 225
306 283 279 289 349 359 327 323 323 292 277 300 296 301 247 246 240 233 229 220 206 202 221 228 224 231 235 240 241 244 236 226 227 230 235 225 234 231 231 227 231 231 234 234 232 232 231 232 238
262 262 269 274 296 277 292 273 267 277 271 275 279 255 265 256 255 255 245 237 227 212 208 227 228 232 233 236 239 242 230 225 234 233 227 230 231 239 245 242 238 238 235 235 237 236 234 241 247
302 312 301 316 305 263 254 269 263 249 271 268 272 255 252 251 256 265 251 239 237 229 215 218 238 237 232 235 239 241 235 233 236 238 241 240 244 243 244 247 243 239 241 238 242 245 250 251 252
302 301 335 283 273 253 276 293 231 264 278 268 258 256 255 257 247 262 269 255 251 246 227 225 229 242 239 236 239 240 241 238 240 242 249 249 249 249 248 246 250 250 248 246 243 242 244 248 250
336 223 260 242 252 261 201 256 249 277 296 274 258 254 261 258 249 259 262 260 258 253 245 229 232 235 241 240 240 240 236 243 247 248 247 248 248 251 253 251 250 252 251 249 246 244 245 249 252
253 248 238 289 242 253 184 256 217 251 298 313 266 250 269 276 265 246 252 250 257 260 256 243 230 239 242 240 241 242 244 243 245 248 250 251 252 250 251 253 253 251 248 247 246 245 247 250 253
223 231 251 236 263 200 210 252 259 266 282 289 278 263 271 281 274 278 251 246 253 259 260 260 244 238 240 243 238 240 243 246 247 248 248 249 250 252 251 250 251 249 249 247 246 246 247 251 253
256 256 256 309 288 181 236 267 273 282 288 293 293 280 268 268 271 266 269 248 252 257 261 265 259 248 244 246 239 235 239 243 247 249 252 254 251 248 250 250 249 247 247 249 250 251 248 247 247
246 263 269 286 255 224 260 274 272 269 272 275 276 273 270 268 264 262 265 270 256 263 268 262 264 260 251 251 253 249 246 246 249 252 253 255 259 257 250 250 249 248 248 247 247 247 248 248 243
226 232 242 243 296 239 309 277 268 245 253 260 264 267 276 267 265 263 263 265 267 260 264 262 261 262 260 255 256 258 259 253 250 249 251 253 255 258 257 255 252 249 248 249 249 249 248 250 247
240 215 233 252 277 262 136 285 276 273 256 261 277 274 278 283 267 264 269 271 259 264 264 262 256 258 261 260 255 258 259 260 259 259 258 257 254 256 258 258 257 255 251 248 250 251 250 248 250
252 263 222 220 232 299 251 273 279 240 230 279 287 279 283 264 259 252 234 182 216 286 242 251 261 262 261 259 257 258 260 264 267 265 264 262 261 259 258 257 257 257 256 253 252 251 247 248 247
216 27 33 7 142 248 249 190 268 260 250 230 270 320 175 124 105 89 81 45 4 313 274 269 265 269 267 262 260 257 258 263 263 264 264 265 266 264 262 260 256 256 257 257 255 254 254 251 252
131 108 246 225 212 248 176 187 237 258 226 193 250 138 117 112 105 87 57 33 18 18 7 351 329 301 274 261 263 264 263 265 263 262 264 266 267 268 266 264 259 258 258 259 258 257 255 255 254
206 198 224 220 212 267 161 222 239 230 242 261 150 117 118 117 119 77 32 26 25 16 5 355 348 339 331 308 276 262 266 264 263 264 263 264 266 268 271 271 268 266 265 263 260 258 259 257 257
181 206 242 268 127 319 232 276 299 232 83 116 117 111 101 102 74 58 47 43 30 2 348 342 337 337 335 326 320 290 269 266 266 266 268 268 268 269 271 270 269 268 266 266 263 260 259 259 258
204 158 154 205 240 249 275 271 228 127 128 116 112 114 108 96 78 76 60 34 12 10 3 355 345 338 338 332 326 324 304 278 267 267 269 269 271 271 270 269 266 265 265 265 264 262 262 260 260
176 180 159 132 247 202 260 288 286 160 144 138 132 118 107 98 88 78 50 24 11 5 6 5 3 354 339 331 333 330 324 310 286 267 267 270 272 271 270 268 265 264 263 264 262 261 261 261 261
204 211 188 186 181 207 216 241 292 153 150 135 128 118 92 94 102 66 30 11 4 1 359 358 357 356 352 337 326 324 330 322 316 294 274 266 267 267 267 267 264 262 263 262 264 265 264 264 265